,,Stat5,,Stat1,,Stat2,,Stat3,,Stat4,,Wind1,,Wind1,
time,status,PA1M_AVG,status,PR1M_SUM,status,RH1M_AVG,status,SR1M_AVG,status,TA1M_AVG,status,W1dAve1m,status,W1sAve1m,
2002-09-19, 00:00:00,VALID,919.699,VALID,0,VALID,99.5844,VALID,-0.0339617,VALID,18.8207,VALID,147,VALID,1.11999,
2002-09-19, 00:01:00,VALID,919.672,VALID,0,VALID,99.5679,VALID,-0.0169808,VALID,18.8314,VALID,144,VALID,1.57964,
2002-09-19, 00:02:00,VALID,919.653,VALID,0,VALID,99.5794,VALID,-0.0679233,VALID,18.8244,VALID,135,VALID,1.08438,
2002-09-19, 00:03:00,VALID,919.628,VALID,0,VALID,99.5768,VALID,0,VALID,18.8277,VALID,144,VALID,1.60304,
2002-09-19, 00:04:00,VALID,919.6,VALID,0,VALID,99.5743,VALID,0,VALID,18.8336,VALID,149,VALID,1.5115,
2002-09-19, 00:05:00,VALID,919.553,VALID,0,VALID,99.5883,VALID,0,VALID,18.8406,VALID,147,VALID,1.75449,
2002-09-19, 00:06:00,VALID,919.524,VALID,0,VALID,99.5857,VALID,0,VALID,18.8076,VALID,146,VALID,1.8742,
2002-09-19, 00:07:00,VALID,919.471,VALID,0,VALID,99.5819,VALID,-0.0509425,VALID,18.8177,VALID,140,VALID,1.6228,
2002-09-19, 00:08:00,VALID,919.438,VALID,0,VALID,99.5755,VALID,-0.0169808,VALID,18.8177,VALID,148,VALID,1.60243,
2002-09-19, 00:09:00,VALID,919.433,VALID,0,VALID,99.5883,VALID,-0.0169808,VALID,18.8247,VALID,144,VALID,1.62943,
2002-09-19, 00:10:00,VALID,919.419,VALID,0,VALID,99.5895,VALID,-0.0339617,VALID,18.8048,VALID,144,VALID,1.23479,
2002-09-19, 00:11:00,VALID,919.436,VALID,0,VALID,99.5933,VALID,-0.0169808,VALID,18.7988,VALID,157,VALID,1.47944,
2002-09-19, 00:12:00,VALID,919.419,VALID,0,VALID,99.5857,VALID,-0.0169808,VALID,18.7854,VALID,159,VALID,1.10764,
2002-09-19, 00:13:00,VALID,919.415,VALID,0,VALID,99.5921,VALID,-0.0169808,VALID,18.7891,VALID,156,VALID,1.50253,
2002-09-19, 00:14:00,VALID,919.405,VALID,0,VALID,99.5832,VALID,0,VALID,18.7762,VALID,148,VALID,1.08573,
2002-09-19, 00:15:00,VALID,919.368,VALID,0,VALID,99.5883,VALID,0,VALID,18.7693,VALID,153,VALID,1.07707,
2002-09-19, 00:16:00,VALID,919.342,VALID,0,VALID,99.5806,VALID,-0.0169808,VALID,18.7432,VALID,145,VALID,1.38421,
2002-09-19, 00:17:00,VALID,919.316,VALID,0,VALID,99.5743,VALID,-0.0169808,VALID,18.7409,VALID,143,VALID,1.33024,
2002-09-19, 00:18:00,VALID,919.298,VALID,0,VALID,99.5704,VALID,-0.0169808,VALID,18.7114,VALID,145,VALID,1.40604,
2002-09-19, 00:19:00,VALID,919.29,VALID,0,VALID,99.5704,VALID,0,VALID,18.6881,VALID,152,VALID,1.55134,
2002-09-19, 00:20:00,VALID,919.274,VALID,0,VALID,99.573,VALID,-0.0169808,VALID,18.6791,VALID,141,VALID,1.46917,
2002-09-19, 00:21:00,VALID,919.244,VALID,0,VALID,99.5603,VALID,0,VALID,18.6436,VALID,123,VALID,1.15425,
2002-09-19, 00:22:00,VALID,919.226,VALID,0,VALID,99.5552,VALID,-0.0169808,VALID,18.6274,VALID,116,VALID,0.95,
2002-09-19, 00:23:00,VALID,919.201,VALID,0,VALID,99.5654,VALID,0,VALID,18.5884,VALID,123,VALID,0.798986,
2002-09-19, 00:24:00,VALID,919.194,VALID,0,VALID,99.5603,VALID,0,VALID,18.5762,VALID,119,VALID,0.778429,
2002-09-19, 00:25:00,VALID,919.171,VALID,0,VALID,99.5616,VALID,0,VALID,18.5398,VALID,122,VALID,0.999023,
2002-09-19, 00:26:00,VALID,919.16,VALID,0,VALID,99.5527,VALID,-0.0339617,VALID,18.5174,VALID,126,VALID,0.96895,
2002-09-19, 00:27:00,VALID,919.182,VALID,0,VALID,99.5552,VALID,-0.0339617,VALID,18.4948,VALID,134,VALID,0.946915,
2002-09-19, 00:28:00,VALID,919.183,VALID,0,VALID,99.5603,VALID,-0.0339617,VALID,18.4789,VALID,122,VALID,0.625651,
2002-09-19, 00:29:00,VALID,919.175,VALID,0,VALID,99.5577,VALID,-0.0169808,VALID,18.463,VALID,110,VALID,0.617399,
2002-09-19, 00:30:00,VALID,919.169,VALID,0,VALID,99.5552,VALID,0,VALID,18.4339,VALID,127,VALID,1.01912,
2002-09-19, 00:31:00,VALID,919.138,VALID,0,VALID,99.5577,VALID,0,VALID,18.4108,VALID,134,VALID,0.820313,
2002-09-19, 00:32:00,VALID,919.113,VALID,0,VALID,99.573,VALID,0.0169808,VALID,18.4106,VALID,137,VALID,1.07726,
2002-09-19, 00:33:00,VALID,919.107,VALID,0,VALID,99.5832,VALID,0,VALID,18.4173,VALID,118,VALID,0.802998,
2002-09-19, 00:34:00,VALID,919.09,VALID,0,VALID,99.5921,VALID,-0.0169808,VALID,18.4337,VALID,99,VALID,0.557771,
2002-09-19, 00:35:00,VALID,919.079,VALID,0,VALID,99.5946,VALID,-0.0339617,VALID,18.4304,VALID,117,VALID,0.55891,
2002-09-19, 00:36:00,VALID,919.063,VALID,0,VALID,99.5908,VALID,0,VALID,18.4369,VALID,122,VALID,0.940505,
2002-09-19, 00:37:00,VALID,919.027,VALID,0,VALID,99.5959,VALID,-0.0339617,VALID,18.4436,VALID,113,VALID,0.847973,
2002-09-19, 00:38:00,VALID,919.021,VALID,0,VALID,99.5984,VALID,0,VALID,18.4369,VALID,122,VALID,0.565456,
2002-09-19, 00:39:00,VALID,918.985,VALID,0,VALID,99.6061,VALID,-0.0509425,VALID,18.4434,VALID,124,VALID,0.88058,
2002-09-19, 00:40:00,VALID,918.979,VALID,0,VALID,99.6086,VALID,-0.0339617,VALID,18.4501,VALID,111,VALID,0.570946,
2002-09-19, 00:41:00,VALID,918.964,VALID,0,VALID,99.6048,VALID,0,VALID,18.4404,VALID,126,VALID,1.04347,
2002-09-19, 00:42:00,VALID,918.946,VALID,0,VALID,99.6124,VALID,0,VALID,18.4468,VALID,126,VALID,0.917857,
2002-09-19, 00:43:00,VALID,918.944,VALID,0,VALID,99.5972,VALID,0,VALID,18.4309,VALID,139,VALID,0.717694,
2002-09-19, 00:44:00,VALID,918.919,VALID,0,VALID,99.6048,VALID,0,VALID,18.4309,VALID,146,VALID,0.834418,
2002-09-19, 00:45:00,VALID,918.907,VALID,0,VALID,99.5997,VALID,0.0169808,VALID,18.4175,VALID,127,VALID,0.667578,
2002-09-19, 00:46:00,VALID,918.899,VALID,0,VALID,99.5959,VALID,-0.0169808,VALID,18.418,VALID,149,VALID,0.82512,
2002-09-19, 00:47:00,VALID,918.875,VALID,0,VALID,99.5984,VALID,0,VALID,18.4046,VALID,151,VALID,0.821915,
2002-09-19, 00:48:00,VALID,918.886,VALID,0,VALID,99.5972,VALID,-0.0169808,VALID,18.4143,VALID,155,VALID,0.232422,
2002-09-19, 00:49:00,VALID,918.874,VALID,0,VALID,99.5946,VALID,0,VALID,18.4145,VALID,152,VALID,0.137035,
2002-09-19, 00:50:00,VALID,918.872,VALID,0,VALID,99.5933,VALID,0,VALID,18.4208,VALID,170,VALID,0.807977,
2002-09-19, 00:51:00,VALID,918.864,VALID,0,VALID,99.5959,VALID,-0.0169808,VALID,18.424,VALID,169,VALID,0.393914,
2002-09-19, 00:52:00,VALID,918.884,VALID,0,VALID,99.6111,VALID,-0.0169808,VALID,18.4371,VALID,196,VALID,0.308377,
2002-09-19, 00:53:00,VALID,918.859,VALID,0,VALID,99.6048,VALID,-0.0169808,VALID,18.4468,VALID,186,VALID,0.327069,
2002-09-19, 00:54:00,VALID,918.86,VALID,0,VALID,99.5946,VALID,0,VALID,18.4304,VALID,220,VALID,0.388158,
2002-09-19, 00:55:00,VALID,918.841,VALID,0,VALID,99.5984,VALID,0,VALID,18.3977,VALID,241,VALID,0.522171,
2002-09-19, 00:56:00,VALID,918.84,VALID,0,VALID,99.5984,VALID,0,VALID,18.391,VALID,250,VALID,0.536659,
2002-09-19, 00:57:00,VALID,918.833,VALID,0,VALID,99.5997,VALID,-0.0169808,VALID,18.4019,VALID,253,VALID,0.380279,
2002-09-19, 00:58:00,VALID,918.827,VALID,0,VALID,99.5984,VALID,0,VALID,18.4018,VALID,253,VALID,0.0287162,
2002-09-19, 00:59:00,VALID,918.801,VALID,0,VALID,99.601,VALID,0,VALID,18.3885,VALID,253,VALID,0,
2002-09-19, 01:00:00,VALID,918.787,VALID,0,VALID,99.5933,VALID,-0.0169808,VALID,18.3691,VALID,253,VALID,0,
2002-09-19, 01:01:00,VALID,918.777,VALID,0,VALID,99.6022,VALID,0,VALID,18.3532,VALID,253,VALID,0,
2002-09-19, 01:02:00,VALID,918.749,VALID,0,VALID,99.6022,VALID,0,VALID,18.3172,VALID,253,VALID,0,
2002-09-19, 01:03:00,VALID,918.747,VALID,0,VALID,99.5921,VALID,0,VALID,18.311,VALID,161,VALID,0.348606,
2002-09-19, 01:04:00,VALID,918.737,VALID,0,VALID,99.5984,VALID,-0.0169808,VALID,18.299,VALID,127,VALID,0.328342,
2002-09-19, 01:05:00,VALID,918.749,VALID,0,VALID,99.5933,VALID,-0.0169808,VALID,18.2759,VALID,131,VALID,0.187109,
2002-09-19, 01:06:00,VALID,918.758,VALID,0,VALID,99.5946,VALID,0,VALID,18.2759,VALID,149,VALID,0.706731,
2002-09-19, 01:07:00,VALID,918.758,VALID,0,VALID,99.5984,VALID,0.0169808,VALID,18.2655,VALID,138,VALID,0.847556,
2002-09-19, 01:08:00,VALID,918.774,VALID,0,VALID,99.6137,VALID,0,VALID,18.2789,VALID,136,VALID,1.02582,
2002-09-19, 01:09:00,VALID,918.775,VALID,0,VALID,99.6124,VALID,0.0169808,VALID,18.2948,VALID,144,VALID,0.95777,
2002-09-19, 01:10:00,VALID,918.775,VALID,0,VALID,99.6264,VALID,0,VALID,18.3013,VALID,140,VALID,1.06723,
2002-09-19, 01:11:00,VALID,918.768,VALID,0,VALID,99.6264,VALID,0,VALID,18.3013,VALID,127,VALID,0.983141,
2002-09-19, 01:12:00,VALID,918.746,VALID,0,VALID,99.6251,VALID,0.0169808,VALID,18.3239,VALID,141,VALID,1.12391,
2002-09-19, 01:13:00,VALID,918.724,VALID,0,VALID,99.6289,VALID,0,VALID,18.3465,VALID,115,VALID,1.11191,
2002-09-19, 01:14:00,VALID,918.688,VALID,0,VALID,99.6289,VALID,-0.0169808,VALID,18.373,VALID,116,VALID,0.729235,
2002-09-19, 01:15:00,VALID,918.662,VALID,0,VALID,99.648,VALID,0,VALID,18.3594,VALID,137,VALID,1.00317,
2002-09-19, 01:16:00,VALID,918.634,VALID,0,VALID,99.6468,VALID,0.0169808,VALID,18.3594,VALID,130,VALID,1.04407,
2002-09-19, 01:17:00,VALID,918.612,VALID,0,VALID,99.6378,VALID,-0.0509425,VALID,18.3832,VALID,136,VALID,1.32876,
2002-09-19, 01:18:00,VALID,918.594,VALID,0,VALID,99.6366,VALID,-0.101885,VALID,18.3767,VALID,133,VALID,1.60262,
2002-09-19, 01:19:00,VALID,918.562,VALID,0,VALID,99.6239,VALID,-0.0679233,VALID,18.3894,VALID,127,VALID,1.10513,
2002-09-19, 01:20:00,VALID,918.541,VALID,0,VALID,99.634,VALID,-0.0849042,VALID,18.3765,VALID,133,VALID,1.12943,
2002-09-19, 01:21:00,VALID,918.522,VALID,0,VALID,99.6277,VALID,-0.0679233,VALID,18.3832,VALID,126,VALID,0.753806,
2002-09-19, 01:22:00,VALID,918.504,VALID,0,VALID,99.6302,VALID,-0.0849042,VALID,18.3733,VALID,124,VALID,0.466518,
2002-09-19, 01:23:00,VALID,918.488,VALID,0,VALID,99.6226,VALID,-0.101885,VALID,18.3638,VALID,134,VALID,0.852829,
2002-09-19, 01:24:00,VALID,918.482,VALID,0,VALID,99.6251,VALID,-0.0849042,VALID,18.3705,VALID,128,VALID,0.954861,
2002-09-19, 01:25:00,VALID,918.49,VALID,0,VALID,99.6213,VALID,-0.101885,VALID,18.3774,VALID,141,VALID,0.708789,
2002-09-19, 01:26:00,VALID,918.494,VALID,0,VALID,99.62,VALID,-0.0849042,VALID,18.3836,VALID,129,VALID,0.735377,
2002-09-19, 01:27:00,VALID,918.491,VALID,0,VALID,99.6137,VALID,-0.0679233,VALID,18.3735,VALID,145,VALID,0.872596,
2002-09-19, 01:28:00,VALID,918.475,VALID,0,VALID,99.615,VALID,-0.0849042,VALID,18.3806,VALID,128,VALID,0.575521,
2002-09-19, 01:29:00,VALID,918.453,VALID,0,VALID,99.6111,VALID,-0.0849042,VALID,18.364,VALID,147,VALID,0.745988,
2002-09-19, 01:30:00,VALID,918.434,VALID,0,VALID,99.6061,VALID,-0.0679233,VALID,18.3472,VALID,156,VALID,0.614515,
2002-09-19, 01:31:00,VALID,918.419,VALID,0,VALID,99.6035,VALID,-0.101885,VALID,18.3546,VALID,125,VALID,0.613281,
2002-09-19, 01:32:00,VALID,918.41,VALID,0,VALID,99.5997,VALID,0,VALID,18.337,VALID,166,VALID,0.46224,
2002-09-19, 01:33:00,VALID,918.415,VALID,0,VALID,99.6035,VALID,0.0169808,VALID,18.3241,VALID,168,VALID,0.0289274,
2002-09-19, 01:34:00,VALID,918.412,VALID,0,VALID,99.6022,VALID,0.0169808,VALID,18.311,VALID,89,VALID,0.210526,
2002-09-19, 01:35:00,VALID,918.413,VALID,0,VALID,99.5972,VALID,0,VALID,18.2948,VALID,77,VALID,0.0128801,
2002-09-19, 01:36:00,VALID,918.409,VALID,0,VALID,99.5959,VALID,0,VALID,18.2819,VALID,73,VALID,0.205529,
2002-09-19, 01:37:00,VALID,918.414,VALID,0,VALID,99.5984,VALID,0,VALID,18.2496,VALID,60,VALID,0.284206,
2002-09-19, 01:38:00,VALID,918.418,VALID,0,VALID,99.5781,VALID,0.0339617,VALID,18.1975,VALID,59,VALID,0.0447635,
2002-09-19, 01:39:00,VALID,918.406,VALID,0,VALID,99.5768,VALID,0,VALID,18.1622,VALID,59,VALID,0,
2002-09-19, 01:40:00,VALID,918.418,VALID,0,VALID,99.5755,VALID,0,VALID,18.1786,VALID,113,VALID,0.0534206,
2002-09-19, 01:41:00,VALID,918.409,VALID,0,VALID,99.5768,VALID,0.0169808,VALID,18.1917,VALID,173,VALID,0.285256,
2002-09-19, 01:42:00,VALID,918.416,VALID,0,VALID,99.5717,VALID,0,VALID,18.1917,VALID,124,VALID,0.305357,
2002-09-19, 01:43:00,VALID,918.418,VALID,0,VALID,99.5539,VALID,0.0339617,VALID,18.1235,VALID,26,VALID,0.658995,
2002-09-19, 01:44:00,VALID,918.417,VALID,0,VALID,99.5539,VALID,0.0169808,VALID,18.0753,VALID,21,VALID,0.547743,
2002-09-19, 01:45:00,VALID,918.389,VALID,0,VALID,99.5514,VALID,0.0169808,VALID,18.0656,VALID,27,VALID,0.366602,
2002-09-19, 01:46:00,VALID,918.371,VALID,0,VALID,99.5946,VALID,0,VALID,18.1138,VALID,84,VALID,0.915064,
2002-09-19, 01:47:00,VALID,918.357,VALID,0,VALID,99.6048,VALID,0,VALID,18.1523,VALID,96,VALID,0.840946,
2002-09-19, 01:48:00,VALID,918.352,VALID,0,VALID,99.5717,VALID,0,VALID,18.0983,VALID,71,VALID,0.800564,
2002-09-19, 01:49:00,VALID,918.357,VALID,0,VALID,99.5704,VALID,0,VALID,18.043,VALID,66,VALID,0.907939,
2002-09-19, 01:50:00,VALID,918.364,VALID,0,VALID,99.5679,VALID,0,VALID,18.0434,VALID,66,VALID,0.762952,
2002-09-19, 01:51:00,VALID,918.383,VALID,0,VALID,99.5679,VALID,-0.0339617,VALID,18.0469,VALID,70,VALID,0.694285,
2002-09-19, 01:52:00,VALID,918.397,VALID,0,VALID,99.573,VALID,0,VALID,18.0169,VALID,74,VALID,0.642361,
2002-09-19, 01:53:00,VALID,918.392,VALID,0,VALID,99.5895,VALID,0,VALID,18.0368,VALID,86,VALID,0.695524,
2002-09-19, 01:54:00,VALID,918.385,VALID,0,VALID,99.6022,VALID,0.0169808,VALID,18.0527,VALID,107,VALID,0.678865,
2002-09-19, 01:55:00,VALID,918.372,VALID,0,VALID,99.6124,VALID,0.0169808,VALID,18.0755,VALID,109,VALID,0.961993,
2002-09-19, 01:56:00,VALID,918.352,VALID,0,VALID,99.6022,VALID,-0.0169808,VALID,18.105,VALID,114,VALID,1.02424,
2002-09-19, 01:57:00,VALID,918.347,VALID,0,VALID,99.6175,VALID,0.0339617,VALID,18.1076,VALID,101,VALID,1.02534,
2002-09-19, 01:58:00,VALID,918.336,VALID,0,VALID,99.6124,VALID,0,VALID,18.1048,VALID,78,VALID,0.763936,
2002-09-19, 01:59:00,VALID,918.338,VALID,0,VALID,99.5933,VALID,0,VALID,18.0238,VALID,73,VALID,0.701786,
2002-09-19, 02:00:00,VALID,918.343,VALID,0,VALID,99.5908,VALID,0,VALID,18.0146,VALID,99,VALID,0.782517,
2002-09-19, 02:01:00,VALID,918.332,VALID,0,VALID,99.5984,VALID,0,VALID,18.0206,VALID,105,VALID,0.849359,
2002-09-19, 02:02:00,VALID,918.334,VALID,0,VALID,99.6162,VALID,0,VALID,18.0471,VALID,100,VALID,0.833482,
2002-09-19, 02:03:00,VALID,918.346,VALID,0,VALID,99.6099,VALID,0.0169808,VALID,18.0303,VALID,103,VALID,0.71685,
2002-09-19, 02:04:00,VALID,918.359,VALID,0,VALID,99.6022,VALID,0.0339617,VALID,18.0172,VALID,92,VALID,0.700304,
2002-09-19, 02:05:00,VALID,918.369,VALID,0,VALID,99.6073,VALID,0.0169808,VALID,17.9976,VALID,101,VALID,0.721094,
2002-09-19, 02:06:00,VALID,918.368,VALID,0,VALID,99.6188,VALID,0,VALID,17.995,VALID,108,VALID,1.07532,
2002-09-19, 02:07:00,VALID,918.36,VALID,0,VALID,99.6277,VALID,0,VALID,18.0079,VALID,113,VALID,1.16306,
2002-09-19, 02:08:00,VALID,918.36,VALID,0,VALID,99.6162,VALID,0,VALID,18.0042,VALID,118,VALID,1.06771,
2002-09-19, 02:09:00,VALID,918.336,VALID,0,VALID,99.6162,VALID,0.0169808,VALID,18.0047,VALID,116,VALID,1.08383,
2002-09-19, 02:10:00,VALID,918.31,VALID,0,VALID,99.6162,VALID,0,VALID,18.0047,VALID,107,VALID,1.09642,
2002-09-19, 02:11:00,VALID,918.279,VALID,0,VALID,99.6226,VALID,0,VALID,18.0116,VALID,110,VALID,1.02405,
2002-09-19, 02:12:00,VALID,918.272,VALID,0,VALID,99.6264,VALID,0,VALID,17.9982,VALID,102,VALID,0.911024,
2002-09-19, 02:13:00,VALID,918.255,VALID,0,VALID,99.615,VALID,0.0169808,VALID,17.995,VALID,107,VALID,0.954603,
2002-09-19, 02:14:00,VALID,918.244,VALID,0,VALID,99.615,VALID,0,VALID,17.9724,VALID,113,VALID,0.822163,
2002-09-19, 02:15:00,VALID,918.231,VALID,0,VALID,99.6111,VALID,-0.0169808,VALID,17.9602,VALID,115,VALID,1.12416,
2002-09-19, 02:16:00,VALID,918.223,VALID,0,VALID,99.6035,VALID,0,VALID,17.9436,VALID,118,VALID,0.959535,
2002-09-19, 02:17:00,VALID,918.223,VALID,0,VALID,99.5959,VALID,-0.0679233,VALID,17.9415,VALID,118,VALID,0.914063,
2002-09-19, 02:18:00,VALID,918.197,VALID,0,VALID,99.5921,VALID,-0.0849042,VALID,17.9156,VALID,100,VALID,0.727407,
2002-09-19, 02:19:00,VALID,918.213,VALID,0,VALID,99.5972,VALID,-0.0509425,VALID,17.912,VALID,94,VALID,0.89442,
2002-09-19, 02:20:00,VALID,918.201,VALID,0,VALID,99.6111,VALID,-0.0679233,VALID,17.9152,VALID,90,VALID,0.751478,
2002-09-19, 02:21:00,VALID,918.216,VALID,0,VALID,99.6061,VALID,-0.101885,VALID,17.9092,VALID,95,VALID,0.929087,
2002-09-19, 02:22:00,VALID,918.216,VALID,0,VALID,99.6086,VALID,-0.0849042,VALID,17.909,VALID,107,VALID,1.01674,
2002-09-19, 02:23:00,VALID,918.229,VALID,0,VALID,99.6162,VALID,-0.0339617,VALID,17.9343,VALID,103,VALID,0.958615,
2002-09-19, 02:24:00,VALID,918.233,VALID,0,VALID,99.6175,VALID,-0.0509425,VALID,17.9412,VALID,107,VALID,0.847656,
2002-09-19, 02:25:00,VALID,918.237,VALID,0,VALID,99.6137,VALID,-0.0339617,VALID,17.9576,VALID,102,VALID,0.979883,
2002-09-19, 02:26:00,VALID,918.224,VALID,0,VALID,99.6124,VALID,-0.0849042,VALID,17.9445,VALID,95,VALID,0.798678,
2002-09-19, 02:27:00,VALID,918.211,VALID,0,VALID,99.6073,VALID,-0.0849042,VALID,17.9221,VALID,95,VALID,0.705929,
2002-09-19, 02:28:00,VALID,918.203,VALID,0,VALID,99.5984,VALID,-0.101885,VALID,17.899,VALID,90,VALID,0.715495,
2002-09-19, 02:29:00,VALID,918.206,VALID,0,VALID,99.6048,VALID,-0.101885,VALID,17.9156,VALID,87,VALID,0.814189,
2002-09-19, 02:30:00,VALID,918.219,VALID,0,VALID,99.5946,VALID,-0.101885,VALID,17.909,VALID,83,VALID,0.758224,
2002-09-19, 02:31:00,VALID,918.217,VALID,0,VALID,99.5806,VALID,-0.0509425,VALID,17.8573,VALID,79,VALID,0.804276,
2002-09-19, 02:32:00,VALID,918.219,VALID,0,VALID,99.5603,VALID,0,VALID,17.8015,VALID,83,VALID,0.988064,
2002-09-19, 02:33:00,VALID,918.212,VALID,0,VALID,99.5628,VALID,-0.0679233,VALID,17.8024,VALID,86,VALID,0.914063,
2002-09-19, 02:34:00,VALID,918.209,VALID,0,VALID,99.5755,VALID,-0.0849042,VALID,17.7959,VALID,90,VALID,0.899671,
2002-09-19, 02:35:00,VALID,918.209,VALID,0,VALID,99.5794,VALID,-0.101885,VALID,17.7959,VALID,97,VALID,0.79603,
2002-09-19, 02:36:00,VALID,918.204,VALID,0,VALID,99.5984,VALID,-0.0509425,VALID,17.8416,VALID,114,VALID,0.905849,
2002-09-19, 02:37:00,VALID,918.216,VALID,0,VALID,99.615,VALID,-0.101885,VALID,17.8573,VALID,112,VALID,0.957981,
2002-09-19, 02:38:00,VALID,918.226,VALID,0,VALID,99.6162,VALID,-0.0509425,VALID,17.8769,VALID,107,VALID,0.762669,
2002-09-19, 02:39:00,VALID,918.228,VALID,0,VALID,99.6022,VALID,-0.0849042,VALID,17.8732,VALID,120,VALID,0.49308,
2002-09-19, 02:40:00,VALID,918.23,VALID,0,VALID,99.6124,VALID,-0.0679233,VALID,17.8347,VALID,129,VALID,0.489654,
2002-09-19, 02:41:00,VALID,918.217,VALID,0,VALID,99.6124,VALID,-0.0849042,VALID,17.825,VALID,115,VALID,0.88101,
2002-09-19, 02:42:00,VALID,918.203,VALID,0,VALID,99.615,VALID,-0.0849042,VALID,17.8285,VALID,125,VALID,0.81875,
2002-09-19, 02:43:00,VALID,918.2,VALID,0,VALID,99.6111,VALID,-0.101885,VALID,17.8218,VALID,132,VALID,0.911318,
2002-09-19, 02:44:00,VALID,918.187,VALID,0,VALID,99.6239,VALID,-0.101885,VALID,17.8448,VALID,143,VALID,0.749566,
2002-09-19, 02:45:00,VALID,918.184,VALID,0,VALID,99.6061,VALID,-0.0679233,VALID,17.8414,VALID,140,VALID,0.760547,
2002-09-19, 02:46:00,VALID,918.188,VALID,0,VALID,99.6175,VALID,-0.0679233,VALID,17.8114,VALID,142,VALID,0.804487,
2002-09-19, 02:47:00,VALID,918.198,VALID,0,VALID,99.6111,VALID,0.0169808,VALID,17.8116,VALID,144,VALID,0.720753,
2002-09-19, 02:48:00,VALID,918.207,VALID,0,VALID,99.6035,VALID,0.0169808,VALID,17.7918,VALID,137,VALID,0.741319,
2002-09-19, 02:49:00,VALID,918.221,VALID,0,VALID,99.6111,VALID,0.0169808,VALID,17.7951,VALID,136,VALID,0.938133,
2002-09-19, 02:50:00,VALID,918.202,VALID,0,VALID,99.6048,VALID,0.0509425,VALID,17.7785,VALID,121,VALID,0.571957,
2002-09-19, 02:51:00,VALID,918.211,VALID,0,VALID,99.615,VALID,0.0169808,VALID,17.7789,VALID,125,VALID,0.806743,
2002-09-19, 02:52:00,VALID,918.202,VALID,0,VALID,99.6315,VALID,0.0509425,VALID,17.7918,VALID,122,VALID,0.840278,
2002-09-19, 02:53:00,VALID,918.187,VALID,0,VALID,99.6404,VALID,0.0679233,VALID,17.814,VALID,127,VALID,0.636824,
2002-09-19, 02:54:00,VALID,918.185,VALID,0,VALID,99.6391,VALID,0.0849042,VALID,17.8237,VALID,126,VALID,0.699219,
2002-09-19, 02:55:00,VALID,918.175,VALID,0,VALID,99.6518,VALID,0.0339617,VALID,17.84,VALID,131,VALID,0.928421,
2002-09-19, 02:56:00,VALID,918.18,VALID,0,VALID,99.6442,VALID,0.0509425,VALID,17.8428,VALID,137,VALID,1.09635,
2002-09-19, 02:57:00,VALID,918.172,VALID,0,VALID,99.6404,VALID,0.0509425,VALID,17.8398,VALID,138,VALID,0.978252,
2002-09-19, 02:58:00,VALID,918.148,VALID,0,VALID,99.6366,VALID,0.0169808,VALID,17.84,VALID,126,VALID,0.800676,
2002-09-19, 02:59:00,VALID,918.135,VALID,0,VALID,99.6277,VALID,0.0169808,VALID,17.837,VALID,121,VALID,0.88058,
2002-09-19, 03:00:00,VALID,918.109,VALID,0,VALID,99.6277,VALID,0.0169808,VALID,17.8273,VALID,120,VALID,0.943834,
2002-09-19, 03:01:00,VALID,918.085,VALID,0,VALID,99.6417,VALID,0.0509425,VALID,17.8366,VALID,118,VALID,1.08674,
2002-09-19, 03:02:00,VALID,918.072,VALID,0,VALID,99.634,VALID,-0.0339617,VALID,17.8506,VALID,115,VALID,0.991518,
2002-09-19, 03:03:00,VALID,918.058,VALID,0,VALID,99.634,VALID,-0.0509425,VALID,17.8478,VALID,105,VALID,1.35769,
2002-09-19, 03:04:00,VALID,918.05,VALID,0,VALID,99.6378,VALID,-0.0339617,VALID,17.8543,VALID,109,VALID,1.23372,
2002-09-19, 03:05:00,VALID,918.046,VALID,0,VALID,99.6289,VALID,-0.0339617,VALID,17.8442,VALID,99,VALID,1.24609,
2002-09-19, 03:06:00,VALID,918.034,VALID,0,VALID,99.6188,VALID,-0.0339617,VALID,17.8282,VALID,107,VALID,1.08333,
2002-09-19, 03:07:00,VALID,918.035,VALID,0,VALID,99.62,VALID,-0.0849042,VALID,17.7824,VALID,111,VALID,0.935296,
2002-09-19, 03:08:00,VALID,918.029,VALID,0,VALID,99.6048,VALID,-0.0849042,VALID,17.7835,VALID,118,VALID,1.0191,
2002-09-19, 03:09:00,VALID,918.038,VALID,0,VALID,99.6099,VALID,-0.0679233,VALID,17.7733,VALID,124,VALID,0.995144,
2002-09-19, 03:10:00,VALID,918.045,VALID,0,VALID,99.6061,VALID,-0.0339617,VALID,17.7602,VALID,121,VALID,1.38898,
2002-09-19, 03:11:00,VALID,918.043,VALID,0,VALID,99.5984,VALID,-0.0509425,VALID,17.7314,VALID,133,VALID,1.15419,
2002-09-19, 03:12:00,VALID,918.032,VALID,0,VALID,99.5908,VALID,-0.0509425,VALID,17.7187,VALID,121,VALID,1.23893,
2002-09-19, 03:13:00,VALID,918.023,VALID,0,VALID,99.6111,VALID,-0.0339617,VALID,17.7058,VALID,120,VALID,1.19215,
2002-09-19, 03:14:00,VALID,918.014,VALID,0,VALID,99.6061,VALID,-0.0509425,VALID,17.6829,VALID,117,VALID,0.904605,
2002-09-19, 03:15:00,VALID,917.997,VALID,0,VALID,99.6073,VALID,-0.101885,VALID,17.6638,VALID,123,VALID,1.06989,
2002-09-19, 03:16:00,VALID,917.969,VALID,0,VALID,99.6213,VALID,-0.101885,VALID,17.6573,VALID,114,VALID,1.17228,
2002-09-19, 03:17:00,VALID,917.96,VALID,0,VALID,99.6366,VALID,-0.0679233,VALID,17.6832,VALID,108,VALID,1.36508,
2002-09-19, 03:18:00,VALID,917.935,VALID,0,VALID,99.6493,VALID,-0.0679233,VALID,17.6961,VALID,110,VALID,1.27703,
2002-09-19, 03:19:00,VALID,917.916,VALID,0,VALID,99.6506,VALID,-0.0849042,VALID,17.7124,VALID,102,VALID,1.4346,
2002-09-19, 03:20:00,VALID,917.911,VALID,0,VALID,99.6633,VALID,-0.0849042,VALID,17.7148,VALID,91,VALID,1.45144,
2002-09-19, 03:21:00,VALID,917.907,VALID,0,VALID,99.662,VALID,-0.0679233,VALID,17.7443,VALID,96,VALID,1.41787,
2002-09-19, 03:22:00,VALID,917.926,VALID,0,VALID,99.6595,VALID,-0.0679233,VALID,17.7413,VALID,102,VALID,1.45335,
2002-09-19, 03:23:00,VALID,917.937,VALID,0,VALID,99.6633,VALID,-0.0509425,VALID,17.7311,VALID,84,VALID,1.25422,
2002-09-19, 03:24:00,VALID,917.946,VALID,0,VALID,99.6569,VALID,-0.0509425,VALID,17.7318,VALID,96,VALID,1.39757,
2002-09-19, 03:25:00,VALID,917.966,VALID,0,VALID,99.6582,VALID,-0.0509425,VALID,17.7445,VALID,107,VALID,1.3543,
2002-09-19, 03:26:00,VALID,917.973,VALID,0,VALID,99.6518,VALID,-0.0339617,VALID,17.7404,VALID,110,VALID,1.72536,
2002-09-19, 03:27:00,VALID,917.965,VALID,0,VALID,99.6506,VALID,0,VALID,17.7507,VALID,105,VALID,1.28305,
2002-09-19, 03:28:00,VALID,917.974,VALID,0,VALID,99.6404,VALID,0,VALID,17.7572,VALID,106,VALID,1.05773,
2002-09-19, 03:29:00,VALID,917.947,VALID,0,VALID,99.6417,VALID,-0.0339617,VALID,17.7505,VALID,106,VALID,1.41702,
2002-09-19, 03:30:00,VALID,917.923,VALID,0,VALID,99.6404,VALID,-0.0339617,VALID,17.757,VALID,97,VALID,1.1618,
2002-09-19, 03:31:00,VALID,917.919,VALID,0,VALID,99.6277,VALID,-0.0509425,VALID,17.748,VALID,92,VALID,0.966283,
2002-09-19, 03:32:00,VALID,917.912,VALID,0,VALID,99.6277,VALID,-0.0679233,VALID,17.7574,VALID,84,VALID,1.2398,
2002-09-19, 03:33:00,VALID,917.928,VALID,0,VALID,99.6378,VALID,0,VALID,17.7766,VALID,94,VALID,1.00148,
2002-09-19, 03:34:00,VALID,917.944,VALID,0,VALID,99.6315,VALID,-0.0339617,VALID,17.7738,VALID,84,VALID,0.933183,